Time,TemperatureF,DewpointF,PressureIn,WindDirection,WindDirectionDegrees,WindSpeedMPH,WindSpeedGustMPH,Humidity,HourlyPrecipIn,Conditions,Clouds,dailyrainin,SoftwareType,DateUTC
2013-02-12 00:00:00,31.9,29.6,29.75,WSW,239,6.0,6.0,91,0.00,,,0.34,Wunderground v.1.15,2013-02-12 05:00:00,
2013-02-12 00:05:00,31.8,29.7,29.75,South,172,5.0,6.0,92,0.00,,,0.00,Wunderground v.1.15,2013-02-12 05:05:00,
2013-02-12 00:10:00,31.8,29.7,29.76,WNW,287,5.0,6.0,92,0.00,,,0.00,Wunderground v.1.15,2013-02-12 05:10:00,
2013-02-12 00:20:00,31.8,29.7,29.76,West,276,6.0,8.0,92,0.00,,,0.00,Wunderground v.1.15,2013-02-12 05:20:00,
2013-02-12 00:25:00,31.8,29.7,29.76,SW,233,6.0,8.0,92,0.00,,,0.00,Wunderground v.1.15,2013-02-12 05:25:00,
2013-02-12 00:30:00,31.8,29.7,29.76,SSW,200,5.0,5.0,92,0.00,,,0.00,Wunderground v.1.15,2013-02-12 05:30:00,
2013-02-12 00:35:00,31.8,29.5,29.76,SW,231,5.0,6.0,91,0.00,,,0.00,Wunderground v.1.15,2013-02-12 05:35:00,
2013-02-12 00:45:00,31.8,29.7,29.76,West,278,5.0,7.0,92,0.00,,,0.00,Wunderground v.1.15,2013-02-12 05:45:00,
2013-02-12 00:55:00,31.9,29.6,29.77,SW,232,5.0,5.0,91,0.00,,,0.00,Wunderground v.1.15,2013-02-12 05:55:00,
2013-02-12 01:05:00,32.3,29.1,29.77,SW,232,5.0,6.0,88,0.00,,,0.00,Wunderground v.1.15,2013-02-12 06:05:00,
2013-02-12 01:10:00,32.4,29.0,29.77,WSW,245,5.0,5.0,87,0.00,,,0.00,Wunderground v.1.15,2013-02-12 06:10:00,
2013-02-12 01:15:00,32.5,29.1,29.77,NNW,347,4.0,5.0,87,0.00,,,0.00,Wunderground v.1.15,2013-02-12 06:15:00,
2013-02-12 01:25:00,32.6,29.2,29.78,WNW,288,4.0,7.0,87,0.00,,,0.00,Wunderground v.1.15,2013-02-12 06:25:00,
2013-02-12 01:35:00,32.8,28.8,29.78,SSE,152,6.0,8.0,85,0.00,,,0.00,Wunderground v.1.15,2013-02-12 06:35:00,
2013-02-12 01:45:00,32.9,28.6,29.78,SW,219,6.0,11.0,84,0.00,,,0.00,Wunderground v.1.15,2013-02-12 06:45:00,
2013-02-12 01:54:00,32.9,28.6,29.78,SW,236,5.0,5.0,84,0.00,,,0.00,Wunderground v.1.15,2013-02-12 06:54:00,
2013-02-12 02:00:00,32.9,28.6,29.78,SSW,193,5.0,5.0,84,0.00,,,0.00,Wunderground v.1.15,2013-02-12 07:00:00,
2013-02-12 02:10:00,33.0,28.4,29.78,East,100,6.0,8.0,83,0.00,,,0.00,Wunderground v.1.15,2013-02-12 07:10:00,
2013-02-12 02:15:00,33.0,28.4,29.79,South,170,6.0,8.0,83,0.00,,,0.00,Wunderground v.1.15,2013-02-12 07:15:00,
2013-02-12 02:20:00,33.0,28.4,29.79,West,273,6.0,7.0,83,0.00,,,0.00,Wunderground v.1.15,2013-02-12 07:20:00,
2013-02-12 02:25:00,33.0,28.4,29.79,SSE,152,5.0,7.0,83,0.00,,,0.00,Wunderground v.1.15,2013-02-12 07:25:00,
2013-02-12 02:34:00,33.0,28.4,29.80,NW,314,7.0,9.0,83,0.00,,,0.00,Wunderground v.1.15,2013-02-12 07:34:00,
2013-02-12 02:40:00,33.0,28.4,29.80,NW,308,6.0,11.0,83,0.00,,,0.00,Wunderground v.1.15,2013-02-12 07:40:00,
2013-02-12 02:45:00,33.0,28.4,29.80,West,259,5.0,11.0,83,0.00,,,0.00,Wunderground v.1.15,2013-02-12 07:45:00,
2013-02-12 02:50:00,33.0,28.4,29.80,SSW,205,5.0,5.0,83,0.00,,,0.00,Wunderground v.1.15,2013-02-12 07:50:00,
2013-02-12 02:59:00,33.0,28.4,29.80,WSW,252,6.0,6.0,83,0.00,,,0.00,Wunderground v.1.15,2013-02-12 07:59:00,
2013-02-12 03:04:00,32.9,28.3,29.80,SW,221,6.0,11.0,83,0.00,,,0.00,Wunderground v.1.15,2013-02-12 08:04:00,
2013-02-12 03:09:00,32.9,28.3,29.81,SSW,204,5.0,5.0,83,0.00,,,0.00,Wunderground v.1.15,2013-02-12 08:09:00,
2013-02-12 03:15:00,32.9,28.3,29.81,SSW,212,5.0,5.0,83,0.00,,,0.00,Wunderground v.1.15,2013-02-12 08:15:00,
2013-02-12 03:25:00,32.9,28.3,29.81,SSW,208,6.0,9.0,83,0.00,,,0.00,Wunderground v.1.15,2013-02-12 08:25:00,
2013-02-12 03:35:00,32.9,28.3,29.81,South,172,6.0,7.0,83,0.00,,,0.00,Wunderground v.1.15,2013-02-12 08:35:00,
2013-02-12 03:40:00,32.8,28.5,29.81,WNW,290,5.0,5.0,84,0.00,,,0.00,Wunderground v.1.15,2013-02-12 08:40:00,
2013-02-12 03:45:00,32.8,28.5,29.81,West,269,5.0,5.0,84,0.00,,,0.00,Wunderground v.1.15,2013-02-12 08:45:00,
2013-02-12 03:50:00,32.8,28.2,29.82,SSW,205,6.0,12.0,83,0.00,,,0.00,Wunderground v.1.15,2013-02-12 08:50:00,
2013-02-12 04:00:00,32.8,28.5,29.83,WNW,288,6.0,7.0,84,0.00,,,0.00,Wunderground v.1.15,2013-02-12 09:00:00,
2013-02-12 04:10:00,32.8,28.2,29.83,West,259,5.0,8.0,83,0.00,,,0.00,Wunderground v.1.15,2013-02-12 09:10:00,
2013-02-12 04:20:00,32.8,28.5,29.84,West,271,6.0,6.0,84,0.00,,,0.00,Wunderground v.1.15,2013-02-12 09:20:00,
2013-02-12 04:25:00,32.7,28.4,29.84,WSW,256,5.0,8.0,84,0.00,,,0.00,Wunderground v.1.15,2013-02-12 09:25:00,
2013-02-12 04:30:00,32.7,28.4,29.84,West,278,5.0,5.0,84,0.00,,,0.00,Wunderground v.1.15,2013-02-12 09:30:00,
2013-02-12 04:35:00,32.7,28.4,29.84,WSW,256,4.0,5.0,84,0.00,,,0.00,Wunderground v.1.15,2013-02-12 09:35:00,
2013-02-12 04:40:00,32.7,28.4,29.84,WNW,283,5.0,5.0,84,0.00,,,0.00,Wunderground v.1.15,2013-02-12 09:40:00,
2013-02-12 04:50:00,32.6,28.3,29.84,WNW,297,5.0,5.0,84,0.00,,,0.00,Wunderground v.1.15,2013-02-12 09:50:00,
2013-02-12 05:00:00,32.6,28.3,29.85,NW,314,5.0,5.0,84,0.00,,,0.00,Wunderground v.1.15,2013-02-12 10:00:00,
2013-02-12 05:10:00,32.5,28.5,29.85,SSW,208,4.0,4.0,85,0.00,,,0.00,Wunderground v.1.15,2013-02-12 10:10:00,
2013-02-12 05:20:00,32.5,28.5,29.85,NW,321,5.0,5.0,85,0.00,,,0.00,Wunderground v.1.15,2013-02-12 10:20:00,
2013-02-12 05:29:00,32.6,28.6,29.86,SW,214,5.0,5.0,85,0.00,,,0.00,Wunderground v.1.15,2013-02-12 10:29:00,
2013-02-12 05:35:00,32.6,28.3,29.86,West,269,5.0,5.0,84,0.00,,,0.00,Wunderground v.1.15,2013-02-12 10:35:00,
2013-02-12 05:40:00,32.6,28.3,29.86,SW,232,5.0,6.0,84,0.00,,,0.00,Wunderground v.1.15,2013-02-12 10:40:00,
2013-02-12 05:49:00,32.6,28.3,29.86,WSW,255,4.0,8.0,84,0.00,,,0.00,Wunderground v.1.15,2013-02-12 10:49:00,
2013-02-12 06:00:00,32.7,28.1,29.86,NW,326,5.0,5.0,83,0.00,,,0.00,Wunderground v.1.15,2013-02-12 11:00:00,
2013-02-12 06:05:00,32.7,28.1,29.86,WSW,239,5.0,5.0,83,0.00,,,0.00,Wunderground v.1.15,2013-02-12 11:05:00,
2013-02-12 06:10:00,32.7,27.8,29.87,SW,221,5.0,5.0,82,0.00,,,0.00,Wunderground v.1.15,2013-02-12 11:10:00,
2013-02-12 06:20:00,32.8,27.6,29.87,WSW,256,5.0,5.0,81,0.00,,,0.00,Wunderground v.1.15,2013-02-12 11:20:00,
2013-02-12 06:29:00,32.8,27.9,29.88,WSW,249,4.0,4.0,82,0.00,,,0.00,Wunderground v.1.15,2013-02-12 11:29:00,
2013-02-12 06:34:00,32.7,27.8,29.88,WSW,251,5.0,5.0,82,0.00,,,0.00,Wunderground v.1.15,2013-02-12 11:34:00,
2013-02-12 06:39:00,32.7,27.8,29.88,SE,128,6.0,6.0,82,0.00,,,0.00,Wunderground v.1.15,2013-02-12 11:39:00,
2013-02-12 06:45:00,32.7,27.8,29.88,SW,220,6.0,6.0,82,0.00,,,0.00,Wunderground v.1.15,2013-02-12 11:45:00,
2013-02-12 06:55:00,32.6,27.7,29.89,SSW,207,6.0,7.0,82,0.00,,,0.00,Wunderground v.1.15,2013-02-12 11:55:00,
2013-02-12 07:05:00,32.5,27.9,29.89,WSW,256,4.0,9.0,83,0.00,,,0.00,Wunderground v.1.15,2013-02-12 12:05:00,
2013-02-12 07:10:00,32.4,27.8,29.89,West,273,4.0,6.0,83,0.00,,,0.00,Wunderground v.1.15,2013-02-12 12:10:00,
2013-02-12 07:19:00,32.4,27.8,29.89,West,269,5.0,5.0,83,0.00,,,0.00,Wunderground v.1.15,2013-02-12 12:19:00,
2013-02-12 07:25:00,32.3,27.7,29.89,SW,221,5.0,5.0,83,0.00,,,0.00,Wunderground v.1.15,2013-02-12 12:25:00,
2013-02-12 07:30:00,32.3,27.7,29.90,SW,236,4.0,4.0,83,0.00,,,0.00,Wunderground v.1.15,2013-02-12 12:30:00,
2013-02-12 07:35:00,32.3,28.0,29.90,WNW,288,5.0,12.0,84,0.00,,,0.00,Wunderground v.1.15,2013-02-12 12:35:00,
2013-02-12 07:45:00,32.2,27.9,29.91,NW,324,4.0,5.0,84,0.00,,,0.00,Wunderground v.1.15,2013-02-12 12:45:00,
2013-02-12 07:55:00,32.3,27.7,29.91,SW,231,5.0,5.0,83,0.00,,,0.00,Wunderground v.1.15,2013-02-12 12:55:00,
2013-02-12 08:00:00,32.3,27.7,29.91,SSE,155,5.0,7.0,83,0.00,,,0.00,Wunderground v.1.15,2013-02-12 13:00:00,
2013-02-12 08:10:00,32.4,27.2,29.91,SW,215,6.0,6.0,81,0.00,,,0.00,Wunderground v.1.15,2013-02-12 13:10:00,
2013-02-12 08:20:00,32.5,27.6,29.92,SW,215,4.0,6.0,82,0.00,,,0.00,Wunderground v.1.15,2013-02-12 13:20:00,
2013-02-12 08:25:00,32.5,27.6,29.92,WSW,241,4.0,6.0,82,0.00,,,0.00,Wunderground v.1.15,2013-02-12 13:25:00,
2013-02-12 08:30:00,32.4,27.5,29.92,SW,222,5.0,5.0,82,0.00,,,0.00,Wunderground v.1.15,2013-02-12 13:30:00,
2013-02-12 08:40:00,32.5,27.3,29.93,SW,232,5.0,8.0,81,0.00,,,0.00,Wunderground v.1.15,2013-02-12 13:40:00,
2013-02-12 08:45:00,32.5,27.3,29.93,WSW,248,5.0,8.0,81,0.00,,,0.00,Wunderground v.1.15,2013-02-12 13:45:00,
2013-02-12 08:50:00,32.5,27.3,29.93,West,280,5.0,5.0,81,0.00,,,0.00,Wunderground v.1.15,2013-02-12 13:50:00,
2013-02-12 08:55:00,32.5,27.3,29.93,SW,228,4.0,5.0,81,0.00,,,0.00,Wunderground v.1.15,2013-02-12 13:55:00,
2013-02-12 09:05:00,32.8,27.6,29.93,West,261,5.0,7.0,81,0.00,,,0.00,Wunderground v.1.15,2013-02-12 14:05:00,
2013-02-12 09:14:00,32.9,27.7,29.94,SW,229,4.0,6.0,81,0.00,,,0.00,Wunderground v.1.15,2013-02-12 14:14:00,
2013-02-12 09:20:00,33.0,27.5,29.94,NW,314,5.0,5.0,80,0.00,,,0.00,Wunderground v.1.15,2013-02-12 14:20:00,
2013-02-12 09:30:00,33.2,27.7,29.94,NW,326,4.0,4.0,80,0.00,,,0.00,Wunderground v.1.15,2013-02-12 14:30:00,
2013-02-12 09:35:00,33.3,27.8,29.95,West,275,3.0,6.0,80,0.00,,,0.00,Wunderground v.1.15,2013-02-12 14:35:00,
2013-02-12 09:40:00,33.3,27.5,29.95,West,276,3.0,3.0,79,0.00,,,0.00,Wunderground v.1.15,2013-02-12 14:40:00,
2013-02-12 09:50:00,33.2,27.1,29.95,WSW,242,4.0,4.0,78,0.00,,,0.00,Wunderground v.1.15,2013-02-12 14:50:00,
2013-02-12 09:55:00,33.1,27.3,29.95,SSE,167,5.0,5.0,79,0.00,,,0.00,Wunderground v.1.15,2013-02-12 14:55:00,
2013-02-12 10:00:00,33.1,27.3,29.94,West,260,4.0,7.0,79,0.00,,,0.00,Wunderground v.1.15,2013-02-12 15:00:00,
2013-02-12 10:10:00,33.1,27.3,29.95,West,266,4.0,4.0,79,0.00,,,0.00,Wunderground v.1.15,2013-02-12 15:10:00,
2013-02-12 10:15:00,33.1,27.3,29.95,South,191,3.0,4.0,79,0.00,,,0.00,Wunderground v.1.15,2013-02-12 15:15:00,
2013-02-12 10:20:00,33.1,27.3,29.95,SW,226,3.0,4.0,79,0.00,,,0.00,Wunderground v.1.15,2013-02-12 15:20:00,
2013-02-12 10:30:00,32.9,27.1,29.95,South,173,4.0,5.0,79,0.00,,,0.00,Wunderground v.1.15,2013-02-12 15:30:00,
2013-02-12 10:35:00,32.9,27.1,29.95,WSW,248,4.0,6.0,79,0.00,,,0.00,Wunderground v.1.15,2013-02-12 15:35:00,
2013-02-12 10:40:00,32.8,26.7,29.95,WNW,298,4.0,7.0,78,0.00,,,0.00,Wunderground v.1.15,2013-02-12 15:40:00,
2013-02-12 10:50:00,32.9,27.1,29.95,WSW,252,3.0,4.0,79,0.00,,,0.00,Wunderground v.1.15,2013-02-12 15:50:00,
2013-02-12 11:00:00,32.9,27.1,29.96,WSW,252,4.0,4.0,79,0.00,,,0.00,Wunderground v.1.15,2013-02-12 16:00:00,
2013-02-12 11:10:00,33.0,26.6,29.96,SW,224,5.0,9.0,77,0.00,,,0.00,Wunderground v.1.15,2013-02-12 16:10:00,
2013-02-12 11:15:00,33.1,26.7,29.96,SW,226,4.0,9.0,77,0.00,,,0.00,Wunderground v.1.15,2013-02-12 16:15:00,
2013-02-12 11:20:00,33.3,26.9,29.96,WSW,248,3.0,3.0,77,0.00,,,0.00,Wunderground v.1.15,2013-02-12 16:20:00,
2013-02-12 11:25:00,33.6,27.2,29.96,WSW,250,3.0,4.0,77,0.00,,,0.00,Wunderground v.1.15,2013-02-12 16:25:00,
2013-02-12 11:35:00,33.7,27.3,29.96,WSW,252,4.0,4.0,77,0.00,,,0.00,Wunderground v.1.15,2013-02-12 16:35:00,
2013-02-12 11:40:00,33.7,27.3,29.96,West,269,3.0,3.0,77,0.00,,,0.00,Wunderground v.1.15,2013-02-12 16:40:00,
2013-02-12 11:50:00,33.3,26.9,29.97,SSW,197,4.0,4.0,77,0.00,,,0.00,Wunderground v.1.15,2013-02-12 16:50:00,
2013-02-12 11:55:00,33.3,27.2,29.97,South,191,4.0,4.0,78,0.00,,,0.00,Wunderground v.1.15,2013-02-12 16:55:00,
2013-02-12 12:00:00,33.1,27.0,29.97,WNW,290,4.0,4.0,78,0.00,,,0.00,Wunderground v.1.15,2013-02-12 17:00:00,
2013-02-12 12:05:00,32.9,26.8,29.97,South,190,4.0,4.0,78,0.00,,,0.00,Wunderground v.1.15,2013-02-12 17:05:00,
2013-02-12 12:15:00,32.9,26.8,29.97,NNE,33,4.0,7.0,78,0.00,,,0.00,Wunderground v.1.15,2013-02-12 17:15:00,
2013-02-12 12:20:00,32.9,26.8,29.97,South,190,4.0,5.0,78,0.00,,,0.00,Wunderground v.1.15,2013-02-12 17:20:00,
2013-02-12 12:25:00,33.0,26.9,29.97,NW,305,4.0,5.0,78,0.00,,,0.00,Wunderground v.1.15,2013-02-12 17:25:00,
2013-02-12 12:35:00,33.2,27.1,29.97,SW,236,3.0,3.0,78,0.00,,,0.00,Wunderground v.1.15,2013-02-12 17:35:00,
2013-02-12 12:40:00,33.1,27.0,29.96,SW,231,4.0,5.0,78,0.00,,,0.00,Wunderground v.1.15,2013-02-12 17:40:00,
2013-02-12 12:49:00,33.1,27.0,29.96,West,267,4.0,4.0,78,0.00,,,0.00,Wunderground v.1.15,2013-02-12 17:49:00,
2013-02-12 12:54:00,33.5,27.1,29.96,NW,315,3.0,4.0,77,0.00,,,0.00,Wunderground v.1.15,2013-02-12 17:54:00,
2013-02-12 12:59:00,33.8,27.4,29.96,SSW,208,2.0,3.0,77,0.00,,,0.00,Wunderground v.1.15,2013-02-12 17:59:00,
2013-02-12 13:05:00,33.9,26.5,29.95,West,260,3.0,4.0,74,0.00,,,0.00,Wunderground v.1.15,2013-02-12 18:05:00,
2013-02-12 13:15:00,33.8,26.4,29.95,West,259,4.0,4.0,74,0.00,,,0.00,Wunderground v.1.15,2013-02-12 18:15:00,
2013-02-12 13:24:00,33.9,26.5,29.94,NW,311,3.0,7.0,74,0.00,,,0.00,Wunderground v.1.15,2013-02-12 18:24:00,
2013-02-12 13:30:00,33.6,26.5,29.95,SW,215,4.0,4.0,75,0.00,,,0.00,Wunderground v.1.15,2013-02-12 18:30:00,
2013-02-12 13:35:00,33.5,26.1,29.95,West,264,4.0,5.0,74,0.00,,,0.00,Wunderground v.1.15,2013-02-12 18:35:00,
2013-02-12 13:40:00,33.4,26.3,29.95,SW,228,4.0,6.0,75,0.00,,,0.00,Wunderground v.1.15,2013-02-12 18:40:00,
2013-02-12 13:50:00,33.2,26.5,29.94,SSW,198,3.0,3.0,76,0.00,,,0.00,Wunderground v.1.15,2013-02-12 18:50:00,
2013-02-12 14:00:00,33.0,26.6,29.94,SW,218,3.0,3.0,77,0.00,,,0.00,Wunderground v.1.15,2013-02-12 19:00:00,
2013-02-12 14:10:00,32.6,26.5,29.94,WSW,244,4.0,4.0,78,0.00,,,0.00,Wunderground v.1.15,2013-02-12 19:10:00,
2013-02-12 14:20:00,32.7,26.6,29.94,WNW,295,3.0,3.0,78,0.00,,,0.00,Wunderground v.1.15,2013-02-12 19:20:00,
2013-02-12 14:25:00,32.8,26.7,29.94,SW,232,3.0,7.0,78,0.00,,,0.00,Wunderground v.1.15,2013-02-12 19:25:00,
2013-02-12 14:30:00,32.8,26.7,29.94,WSW,244,3.0,6.0,78,0.00,,,0.00,Wunderground v.1.15,2013-02-12 19:30:00,
2013-02-12 14:40:00,32.8,26.4,29.94,West,273,3.0,3.0,77,0.00,,,0.00,Wunderground v.1.15,2013-02-12 19:40:00,
2013-02-12 14:50:00,32.7,25.6,29.94,SW,226,4.0,4.0,75,0.00,,,0.00,Wunderground v.1.15,2013-02-12 19:50:00,
2013-02-12 15:00:00,32.5,25.1,29.93,West,280,4.0,4.0,74,0.00,,,0.00,Wunderground v.1.15,2013-02-12 20:00:00,
2013-02-12 15:05:00,32.4,25.0,29.93,WNW,283,4.0,4.0,74,0.00,,,0.00,Wunderground v.1.15,2013-02-12 20:05:00,
2013-02-12 15:10:00,32.4,25.0,29.93,WNW,287,4.0,9.0,74,0.00,,,0.00,Wunderground v.1.15,2013-02-12 20:10:00,
2013-02-12 15:19:00,32.1,26.3,29.94,SSW,204,3.0,3.0,79,0.00,,,0.00,Wunderground v.1.15,2013-02-12 20:19:00,
2013-02-12 15:25:00,32.0,26.5,29.93,WSW,238,3.0,4.0,80,0.00,,,0.00,Wunderground v.1.15,2013-02-12 20:25:00,
2013-02-12 15:35:00,31.6,26.1,29.92,West,273,4.0,4.0,80,0.00,,,0.00,Wunderground v.1.15,2013-02-12 20:35:00,
2013-02-12 15:45:00,31.6,26.4,29.92,SW,224,2.0,3.0,81,0.00,,,0.00,Wunderground v.1.15,2013-02-12 20:45:00,
2013-02-12 15:50:00,31.6,26.4,29.92,WSW,257,3.0,7.0,81,0.00,,,0.00,Wunderground v.1.15,2013-02-12 20:50:00,
2013-02-12 16:00:00,31.4,26.2,29.93,NNW,332,4.0,5.0,81,0.00,,,0.00,Wunderground v.1.15,2013-02-12 21:00:00,
2013-02-12 16:10:00,31.4,25.9,29.93,West,264,3.0,3.0,80,0.00,,,0.00,Wunderground v.1.15,2013-02-12 21:10:00,
2013-02-12 16:15:00,31.4,26.2,29.93,SSE,148,2.0,3.0,81,0.00,,,0.00,Wunderground v.1.15,2013-02-12 21:15:00,
2013-02-12 16:25:00,31.3,26.1,29.93,SW,228,2.0,2.0,81,0.00,,,0.00,Wunderground v.1.15,2013-02-12 21:25:00,
2013-02-12 16:35:00,31.2,26.0,29.93,SW,218,2.0,2.0,81,0.00,,,0.00,Wunderground v.1.15,2013-02-12 21:35:00,
2013-02-12 16:45:00,31.2,25.7,29.93,West,268,1.0,1.0,80,0.00,,,0.00,Wunderground v.1.15,2013-02-12 21:45:00,
2013-02-12 16:55:00,31.3,25.5,29.93,WSW,249,2.0,3.0,79,0.00,,,0.00,Wunderground v.1.15,2013-02-12 21:55:00,
2013-02-12 17:00:00,31.3,25.5,29.94,West,276,2.0,3.0,79,0.00,,,0.00,Wunderground v.1.15,2013-02-12 22:00:00,
2013-02-12 17:09:00,31.3,25.8,29.95,WNW,287,3.0,3.0,80,0.00,,,0.00,Wunderground v.1.15,2013-02-12 22:09:00,
2013-02-12 17:15:00,31.3,25.8,29.95,SSW,210,2.0,3.0,80,0.00,,,0.00,Wunderground v.1.15,2013-02-12 22:15:00,
2013-02-12 17:20:00,31.2,26.0,29.94,SW,226,2.0,2.0,81,0.00,,,0.00,Wunderground v.1.15,2013-02-12 22:20:00,
2013-02-12 17:25:00,31.2,26.0,29.94,SW,228,2.0,2.0,81,0.00,,,0.00,Wunderground v.1.15,2013-02-12 22:25:00,
2013-02-12 17:34:00,31.2,26.0,29.95,West,263,2.0,2.0,81,0.00,,,0.00,Wunderground v.1.15,2013-02-12 22:34:00,
2013-02-12 17:39:00,31.1,26.0,29.95,SSW,198,2.0,2.0,81,0.00,,,0.00,Wunderground v.1.15,2013-02-12 22:39:00,
2013-02-12 17:49:00,31.1,25.7,29.95,WSW,248,3.0,3.0,80,0.00,,,0.00,Wunderground v.1.15,2013-02-12 22:49:00,
2013-02-12 17:55:00,31.1,26.0,29.96,WNW,288,4.0,4.0,81,0.00,,,0.00,Wunderground v.1.15,2013-02-12 22:55:00,
2013-02-12 18:05:00,31.1,26.0,29.96,West,266,4.0,7.0,81,0.00,,,0.00,Wunderground v.1.15,2013-02-12 23:05:00,
2013-02-12 18:10:00,31.1,26.0,29.96,WSW,238,4.0,4.0,81,0.00,,,0.00,Wunderground v.1.15,2013-02-12 23:10:00,
2013-02-12 18:15:00,31.0,26.1,29.96,SSW,201,4.0,6.0,82,0.00,,,0.00,Wunderground v.1.15,2013-02-12 23:15:00,
2013-02-12 18:25:00,31.1,26.2,29.96,WSW,256,4.0,4.0,82,0.00,,,0.00,Wunderground v.1.15,2013-02-12 23:25:00,
2013-02-12 18:35:00,31.1,26.2,29.97,SSW,212,4.0,5.0,82,0.00,,,0.00,Wunderground v.1.15,2013-02-12 23:35:00,
2013-02-12 18:40:00,31.1,26.2,29.97,SW,215,5.0,5.0,82,0.00,,,0.00,Wunderground v.1.15,2013-02-12 23:40:00,
2013-02-12 18:45:00,31.1,26.2,29.97,SW,232,5.0,5.0,82,0.00,,,0.00,Wunderground v.1.15,2013-02-12 23:45:00,
2013-02-12 18:55:00,31.1,26.2,29.98,South,187,4.0,5.0,82,0.00,,,0.00,Wunderground v.1.15,2013-02-12 23:55:00,
2013-02-12 19:05:00,31.1,26.2,29.98,SW,233,3.0,3.0,82,0.00,,,0.00,Wunderground v.1.15,2013-02-13 00:05:00,
2013-02-12 19:15:00,31.0,26.1,29.98,WSW,249,3.0,7.0,82,0.00,,,0.00,Wunderground v.1.15,2013-02-13 00:15:00,
2013-02-12 19:24:00,31.0,26.1,29.98,ESE,103,3.0,3.0,82,0.00,,,0.00,Wunderground v.1.15,2013-02-13 00:24:00,
2013-02-12 19:29:00,31.0,26.1,29.98,West,270,2.0,5.0,82,0.00,,,0.00,Wunderground v.1.15,2013-02-13 00:29:00,
2013-02-12 19:34:00,31.1,26.2,29.98,SW,225,2.0,5.0,82,0.00,,,0.00,Wunderground v.1.15,2013-02-13 00:34:00,
2013-02-12 19:40:00,31.1,26.0,29.98,WSW,237,2.0,2.0,81,0.00,,,0.00,Wunderground v.1.15,2013-02-13 00:40:00,
2013-02-12 19:49:00,31.1,26.2,29.99,East,88,2.0,2.0,82,0.00,,,0.00,Wunderground v.1.15,2013-02-13 00:49:00,
2013-02-12 19:55:00,31.1,26.0,29.99,SSE,160,2.0,2.0,81,0.00,,,0.00,Wunderground v.1.15,2013-02-13 00:55:00,
2013-02-12 20:00:00,31.1,26.0,29.99,WSW,255,1.0,1.0,81,0.00,,,0.00,Wunderground v.1.15,2013-02-13 01:00:00,
2013-02-12 20:10:00,31.1,26.2,29.98,SW,225,2.0,2.0,82,0.00,,,0.00,Wunderground v.1.15,2013-02-13 01:10:00,
2013-02-12 20:20:00,31.0,26.1,29.98,SW,215,2.0,3.0,82,0.00,,,0.00,Wunderground v.1.15,2013-02-13 01:20:00,
2013-02-12 20:30:00,31.0,26.4,29.98,WNW,291,2.0,2.0,83,0.00,,,0.00,Wunderground v.1.15,2013-02-13 01:30:00,
2013-02-12 20:40:00,30.9,26.6,29.98,West,267,2.0,2.0,84,0.00,,,0.00,Wunderground v.1.15,2013-02-13 01:40:00,
2013-02-12 20:45:00,30.9,26.6,29.97,WNW,298,2.0,2.0,84,0.00,,,0.00,Wunderground v.1.15,2013-02-13 01:45:00,
2013-02-12 20:55:00,30.9,26.6,29.97,SW,236,1.0,1.0,84,0.00,,,0.00,Wunderground v.1.15,2013-02-13 01:55:00,
2013-02-12 21:00:00,30.9,26.6,29.97,SSW,193,1.0,1.0,84,0.00,,,0.00,Wunderground v.1.15,2013-02-13 02:00:00,
2013-02-12 21:05:00,30.9,26.3,29.97,West,260,1.0,1.0,83,0.00,,,0.00,Wunderground v.1.15,2013-02-13 02:05:00,
2013-02-12 21:15:00,30.9,26.1,29.97,SSW,197,2.0,3.0,82,0.00,,,0.00,Wunderground v.1.15,2013-02-13 02:15:00,
2013-02-12 21:20:00,30.9,25.8,29.96,SSW,212,1.0,6.0,81,0.00,,,0.00,Wunderground v.1.15,2013-02-13 02:20:00,
2013-02-12 21:30:00,30.9,25.5,29.96,West,273,2.0,2.0,80,0.00,,,0.00,Wunderground v.1.15,2013-02-13 02:30:00,
2013-02-12 21:35:00,31.0,25.6,29.96,WSW,255,2.0,2.0,80,0.00,,,0.00,Wunderground v.1.15,2013-02-13 02:35:00,
2013-02-12 21:44:00,31.0,25.9,29.96,WSW,253,1.0,2.0,81,0.00,,,0.00,Wunderground v.1.15,2013-02-13 02:44:00,
2013-02-12 21:50:00,31.0,25.9,29.95,WSW,256,2.0,2.0,81,0.00,,,0.00,Wunderground v.1.15,2013-02-13 02:50:00,
2013-02-12 22:00:00,30.9,25.5,29.94,West,271,2.0,2.0,80,0.00,,,0.00,Wunderground v.1.15,2013-02-13 03:00:00,
2013-02-12 22:09:00,30.9,25.5,29.94,West,260,2.0,2.0,80,0.00,,,0.00,Wunderground v.1.15,2013-02-13 03:09:00,
2013-02-12 22:15:00,30.9,25.5,29.93,WNW,295,2.0,2.0,80,0.00,,,0.00,Wunderground v.1.15,2013-02-13 03:15:00,
2013-02-12 22:25:00,30.9,25.5,29.94,SSW,205,1.0,2.0,80,0.00,,,0.00,Wunderground v.1.15,2013-02-13 03:25:00,
2013-02-12 22:35:00,30.9,24.5,29.94,SW,220,2.0,2.0,77,0.00,,,0.00,Wunderground v.1.15,2013-02-13 03:35:00,
2013-02-12 22:40:00,30.9,24.2,29.93,SW,214,2.0,2.0,76,0.00,,,0.00,Wunderground v.1.15,2013-02-13 03:40:00,
2013-02-12 22:50:00,30.9,24.2,29.93,WSW,252,2.0,2.0,76,0.00,,,0.00,Wunderground v.1.15,2013-02-13 03:50:00,
2013-02-12 23:00:00,30.8,24.1,29.93,WSW,250,1.0,1.0,76,0.00,,,0.00,Wunderground v.1.15,2013-02-13 04:00:00,
2013-02-12 23:10:00,30.8,24.1,29.93,WSW,242,1.0,1.0,76,0.00,,,0.00,Wunderground v.1.15,2013-02-13 04:10:00,
2013-02-12 23:15:00,30.8,24.1,29.93,West,264,1.0,1.0,76,0.00,,,0.00,Wunderground v.1.15,2013-02-13 04:15:00,
2013-02-12 23:20:00,30.7,24.0,29.93,WSW,242,1.0,2.0,76,0.00,,,0.00,Wunderground v.1.15,2013-02-13 04:20:00,
2013-02-12 23:25:00,30.7,24.0,29.93,WSW,246,1.0,3.0,76,0.00,,,0.00,Wunderground v.1.15,2013-02-13 04:25:00,
2013-02-12 23:30:00,30.7,24.0,29.92,WSW,252,1.0,1.0,76,0.00,,,0.00,Wunderground v.1.15,2013-02-13 04:30:00,
2013-02-12 23:40:00,30.6,23.9,29.92,SW,214,0.0,0.0,76,0.00,,,0.00,Wunderground v.1.15,2013-02-13 04:40:00,
2013-02-12 23:49:00,30.7,23.4,29.92,NW,314,1.0,1.0,74,0.00,,,0.00,Wunderground v.1.15,2013-02-13 04:49:00,
2013-02-12 23:55:00,30.7,23.4,29.92,West,264,1.0,1.0,74,0.00,,,0.00,Wunderground v.1.15,2013-02-13 04:55:00,